This demonstration page uses our WeatherBlox Daily Observations layout. Learn more.

Left ArrowRight Arrow

39.92423, -83.80882

Hourly Observations for January 28, 2018

Temp ( °F °C ) Dew Point ( °F °C ) Humidity (%) Winds ( mph kmh ) Pressure ( in mb ) Visibility ( mi km ) Precip ( " mm )
12:05 am 00:05 Cloudy with Fog 39 4 39 4 100 100 WNW 3 6 30.33 1027 0.25 0.402335 0 0
12:56 am 00:56 Cloudy with Fog 39 3.9 39 3.9 100 100 WNW 3 6 30.29 1026 5 8.0467 0 0
1:56 am 01:56 Cloudy with Fog 37 2.8 36 2.2 96 96 Calm 30.29 1026 0.25 0.402335 0 0
2:56 am 02:56 Cloudy with Fog 35 1.7 35 1.7 100 100 NW 3 6 30.29 1026 0.25 0.402335 0 0
3:56 am 03:56 Cloudy with Fog 33 0.6 33 0.6 100 100 NW 3 6 30.3 1026 0.25 0.402335 0 0
4:56 am 04:56 Cloudy with Freezing Fog 31 -0.6 30 -1.1 96 96 Calm 30.29 1026 0.25 0.402335 0 0
5:56 am 05:56 Cloudy with Freezing Fog 30 -1.1 30 -1.1 100 100 Calm 30.31 1026 0.25 0.402335 0 0
6:22 am 06:22 Cloudy with Freezing Fog 28 -2 28 -2 100 100 Calm 30.39 1029 0.5 0.80467 0 0
6:36 am 06:36 Cloudy with Mist and Fog 28 -2 28 -2 100 100 Calm 30.39 1029 1 1.60934 0 0
6:56 am 06:56 Cloudy with Freezing Fog 27 -2.8 27 -2.8 100 100 Calm 30.33 1027 0.5 0.80467 0 0
7:18 am 07:18 Cloudy with Freezing Fog 27 -3 25 -4 93 93 Calm 30.39 1029 0.25 0.402335 0 0
7:26 am 07:26 Cloudy with Freezing Fog 25 -4 25 -4 100 100 Calm 30.39 1029 0.5 0.80467 0 0
7:34 am 07:34 Cloudy with Freezing Fog 25 -4 25 -4 100 100 Calm 30.39 1029 0.25 0.402335 0 0
7:56 am 07:56 Cloudy with Freezing Fog 25 -3.9 25 -3.9 100 100 SE 3 6 30.34 1028 0.25 0.402335 0 0
8:05 am 08:05 Mostly Cloudy with Mist and Fog 27 -3 25 -4 93 93 ESE 3 6 30.39 1029 0.75 1.207005 0 0
8:08 am 08:08 Mostly Cloudy with Mist and Fog 27 -3 25 -4 93 93 Calm 30.39 1029 1.25 2.011675 0 0
8:12 am 08:12 Partly Cloudy with Mist and Fog 27 -3 25 -4 93 93 ESE 3 6 30.39 1029 2 3.21868 0 0
8:29 am 08:29 Sunny with Mist and Fog 27 -3 27 -3 100 100 ESE 3 6 30.39 1029 4 6.43736 0 0
8:56 am 08:56 Sunny with Mist and Fog 30 -1.1 30 -1.1 100 100 Calm 30.35 1028 5 8.0467 0 0
9:56 am 09:56 Sunny 37 2.8 36 2.2 96 96 Calm 30.36 1028 10 16.0934 0 0
10:56 am 10:56 Sunny 39 3.9 39 3.9 100 100 ESE 6 9 30.36 1028 10 16.0934 0 0
11:56 am 11:56 Sunny 44 6.7 30 -1.1 58 58 SSE 8 13 30.35 1028 10 16.0934 0 0
12:56 pm 12:56 Sunny 47 8.3 30 -1.1 52 52 ESE 6 9 30.31 1027 10 16.0934 0 0
1:56 pm 13:56 Sunny 48 8.9 26 -3.3 42 42 Calm 30.29 1026 10 16.0934 0 0
2:56 pm 14:56 Sunny 49 9.4 27 -2.8 43 43 Calm 30.28 1025 10 16.0934 0 0
3:56 pm 15:56 Sunny 50 10 27 -2.8 41 41 Calm 30.28 1025 10 16.0934 0 0
4:56 pm 16:56 Sunny 49 9.4 26 -3.3 41 41 W 5 7 30.27 1025 10 16.0934 0 0
5:56 pm 17:56 Clear 46 7.8 22 -5.6 38 38 Calm 30.29 1026 10 16.0934 0 0
6:56 pm 18:56 Clear 39 3.9 25 -3.9 57 57 Calm 30.31 1026 10 16.0934 0 0
7:56 pm 19:56 Clear 36 2.2 26 -3.3 67 67 SSE 3 6 30.31 1027 10 16.0934 0 0
8:56 pm 20:56 Clear 33 0.6 27 -2.8 78 78 SSE 3 6 30.3 1026 10 16.0934 0 0
9:56 pm 21:56 Clear 30 -1.1 27 -2.8 88 88 Calm 30.29 1026 10 16.0934 0 0
10:56 pm 22:56 Clear 28 -2.2 25 -3.9 88 88 S 3 6 30.28 1026 10 16.0934 0 0
11:56 pm 23:56 Clear 28 -2.2 25 -3.9 88 88 Calm 30.27 1025 10 16.0934 0 0

Powered by AerisWeather